Retour au catalogue

STARLINK-2578

ActifCommunicationsVLEO
NORAD 48362·PAYLOAD·🇺🇸 United States

Lancé May 4, 2021 depuis Cape Canaveral Space Force Station

Loading…

Prochains Passages (prochaines 24 heures)

TLE

FraisSource: CelesTrak SupGP

Époque: Sep 14, 2026, 13:11 UTC

1 48362C 21038K   26257.54979167 -.00023432  00000+0 -75383-3 0  2578
2 48362  53.1604 199.2219 0001446  92.8568 131.6506 15.31700775    19

Suivez STARLINK-2578 en temps réel avec AllMySat

Download on the App Store